User: anonymous
Location: Natural Bridges National Monument
(37.6093°N, 109.9767°W)
Time: 03:52:34
(UTC-06:00)
Language:

USA 32 - Orbit

View from above orbital plane
View from above orbital plane
View from above satellite
View from above satellite

Ground track
Ground track

The orbit data is extracted from the following two-line orbital elements,

1 19460U 88078A   14202.90116687 0.00000130  00000-0  47397-4 0    09
2 19460  84.9906 117.9833 0002668  16.9594 343.0404 14.33187766    00
Epoch (UTC): 21 July 2014 21:37:40
Eccentricity: 0.0002668
inclination: 84.9906°
perigee height: 779 km
apogee height: 783 km
right ascension of ascending node: 117.9833°
argument of perigee: 16.9594°
revolutions per day: 14.33187766
mean anomaly at epoch: 343.0404°
orbit number at epoch: 0

The dashed part of the orbit path shows where the satellite is in the earth's shadow,  

DLR